User: anonymous   Login
Location: Unspecified
(0.0000°N, 0.0000°E)
Time: 04:40:28
(UTC+00:00)
Language:

Kosmos-2191 - Orbit

View from above orbital plane
View from above orbital plane
View from above satellite
View from above satellite

Ground track
Ground track

The orbit data is extracted from the following two-line orbital elements,

1 21980U 92030E   18015.90769111 -.00000021 +00000-0 -35169-4 0  9996
2 21980 074.0008 185.1151 0018260 005.4601 146.6639 12.44528585163689
Epoch (UTC): 15 January 2018 21:47:04
Eccentricity: 0.0018260
inclination: 74.0008°
perigee height: 1473 km
apogee height: 1502 km
right ascension of ascending node: 185.1151°
argument of perigee: 5.4601°
revolutions per day: 12.44528585
mean anomaly at epoch: 146.6639°
orbit number at epoch: 16368

The dashed part of the orbit path shows where the satellite is in the earth's shadow,  

DLR